NKS125 KSFO-KLAS

Flight info

Callsign NKS125
Flight time N/A
Altitude 33000
Route WESLA5 NTELL Q174 FLCHR COKTL4
Aircraft A320/M-SDE3FGHIRWY/LB1

Departure

Time 2026-05-04 14:17
Airport San Francisco International Airport (KSFO)

Arrival

Time N/A
Airport Harry Reid International Airport (KLAS)
Time Latitude Longitude Altitude Speed Heading
2026-05-04 13:55 37.61976 -122.38406 22 ft 0 kts 216°
2026-05-04 14:07 37.61988 -122.38395 22 ft 2 kts 218°
2026-05-04 14:08 37.62001 -122.38382 23 ft 2 kts 216°
2026-05-04 14:08 37.62016 -122.38373 26 ft 2 kts 178°
2026-05-04 14:08 37.62032 -122.38377 23 ft 2 kts 145°
2026-05-04 14:08 37.62044 -122.38390 22 ft 2 kts 124°
2026-05-04 14:09 37.62047 -122.38396 22 ft 0 kts 119°
2026-05-04 14:10 37.62036 -122.38371 22 ft 5 kts 120°
2026-05-04 14:10 37.62014 -122.38320 22 ft 8 kts 118°
2026-05-04 14:10 37.61982 -122.38242 24 ft 12 kts 117°
2026-05-04 14:10 37.61939 -122.38138 22 ft 15 kts 118°
2026-05-04 14:11 37.61888 -122.38019 22 ft 16 kts 118°
2026-05-04 14:11 37.61795 -122.37759 22 ft 17 kts 111°
2026-05-04 14:11 37.61751 -122.37618 22 ft 18 kts 110°
2026-05-04 14:12 37.61704 -122.37475 22 ft 18 kts 117°
2026-05-04 14:12 37.61642 -122.37329 23 ft 19 kts 117°
2026-05-04 14:12 37.61515 -122.37026 22 ft 20 kts 118°
2026-05-04 14:13 37.61449 -122.36870 24 ft 10 kts 118°
2026-05-04 14:13 37.61411 -122.36835 24 ft 7 kts 150°
2026-05-04 14:13 37.61370 -122.36787 23 ft 9 kts 127°
2026-05-04 14:13 37.61335 -122.36710 22 ft 12 kts 116°
2026-05-04 14:14 37.61292 -122.36603 22 ft 15 kts 117°
2026-05-04 14:14 37.61178 -122.36334 22 ft 20 kts 117°
2026-05-04 14:14 37.61110 -122.36174 22 ft 22 kts 118°
2026-05-04 14:15 37.61101 -122.35901 22 ft 14 kts 28°
2026-05-04 14:15 37.61257 -122.36042 22 ft 36 kts 298°
2026-05-04 14:16 37.61893 -122.37556 22 ft 148 kts 298°
2026-05-04 14:16 37.62439 -122.38844 136 ft 177 kts 298°
2026-05-04 14:17 37.63608 -122.41475 1617 ft 169 kts 297°
2026-05-04 14:17 37.64186 -122.42813 2041 ft 183 kts 297°
2026-05-04 14:17 37.65556 -122.45980 2606 ft 228 kts 298°
2026-05-04 14:18 37.66336 -122.47765 3359 ft 235 kts 298°
2026-05-04 14:18 37.66480 -122.51870 4621 ft 260 kts 235°
2026-05-04 14:19 37.63260 -122.53482 6249 ft 268 kts 168°
2026-05-04 14:19 37.61481 -122.52759 7108 ft 270 kts 157°
2026-05-04 14:19 37.59773 -122.51810 7893 ft 274 kts 155°
2026-05-04 14:19 37.58019 -122.50818 8678 ft 278 kts 155°
2026-05-04 14:20 37.56240 -122.49810 9440 ft 283 kts 156°
2026-05-04 14:20 37.54370 -122.48948 10179 ft 289 kts 162°
2026-05-04 14:20 37.52370 -122.48264 10498 ft 309 kts 165°
2026-05-04 14:21 37.48321 -122.45826 11341 ft 333 kts 139°
2026-05-04 14:21 37.46755 -122.43671 12002 ft 336 kts 125°
2026-05-04 14:21 37.45374 -122.41276 12713 ft 339 kts 125°
2026-05-04 14:21 37.43994 -122.38863 13416 ft 341 kts 124°
2026-05-04 14:22 37.42607 -122.36430 14079 ft 344 kts 124°
2026-05-04 14:22 37.41381 -122.33840 14689 ft 346 kts 114°
2026-05-04 14:22 37.40593 -122.31049 15284 ft 347 kts 103°
2026-05-04 14:22 37.40013 -122.28073 15895 ft 349 kts 103°
2026-05-04 14:23 37.38836 -122.22098 17110 ft 354 kts 103°
2026-05-04 14:23 37.38234 -122.19082 17721 ft 357 kts 103°
2026-05-04 14:23 37.37627 -122.16045 18318 ft 360 kts 103°
2026-05-04 14:24 37.37016 -122.12989 18827 ft 362 kts 103°
2026-05-04 14:24 37.36398 -122.09896 19361 ft 365 kts 103°
2026-05-04 14:24 37.35778 -122.06791 19895 ft 368 kts 103°
2026-05-04 14:24 37.35152 -122.03663 20418 ft 370 kts 103°
2026-05-04 14:25 37.34521 -122.00512 20934 ft 373 kts 103°
2026-05-04 14:25 37.33243 -121.94149 21891 ft 378 kts 103°
2026-05-04 14:25 37.32597 -121.90943 22357 ft 381 kts 103°
2026-05-04 14:26 37.31945 -121.87708 22843 ft 383 kts 103°
2026-05-04 14:26 37.31288 -121.84451 23316 ft 386 kts 103°
2026-05-04 14:26 37.30635 -121.81213 23752 ft 389 kts 103°
2026-05-04 14:26 37.29966 -121.77915 24117 ft 392 kts 104°
2026-05-04 14:27 37.29289 -121.74585 24471 ft 395 kts 104°
2026-05-04 14:27 37.28608 -121.71224 24815 ft 398 kts 104°
2026-05-04 14:27 37.27923 -121.67844 25153 ft 402 kts 104°
2026-05-04 14:27 37.27229 -121.64429 25491 ft 405 kts 104°
2026-05-04 14:28 37.26528 -121.60982 25830 ft 408 kts 104°
2026-05-04 14:28 37.25820 -121.57511 26155 ft 412 kts 105°
2026-05-04 14:28 37.25101 -121.54006 26468 ft 416 kts 105°
2026-05-04 14:28 37.24620 -121.51671 26679 ft 419 kts 105°
2026-05-04 14:29 37.22902 -121.43350 27368 ft 428 kts 106°
2026-05-04 14:29 37.21397 -121.36052 27939 ft 436 kts 107°
2026-05-04 14:30 37.20631 -121.32345 28236 ft 440 kts 107°
2026-05-04 14:30 37.19861 -121.28618 28522 ft 444 kts 107°
2026-05-04 14:30 37.18562 -121.22343 29010 ft 450 kts 107°
2026-05-04 14:31 37.17768 -121.18521 29307 ft 454 kts 108°
2026-05-04 14:31 37.16155 -121.10789 29900 ft 462 kts 108°
2026-05-04 14:32 37.14507 -121.02928 30391 ft 470 kts 109°
2026-05-04 14:32 37.13670 -120.98944 30621 ft 474 kts 109°
2026-05-04 14:32 37.12831 -120.94959 30959 ft 474 kts 109°
2026-05-04 14:32 37.11986 -120.90950 31301 ft 475 kts 110°
2026-05-04 14:33 37.11139 -120.86948 31609 ft 476 kts 110°
2026-05-04 14:33 37.10285 -120.82928 31933 ft 478 kts 110°
2026-05-04 14:33 37.09431 -120.78901 32258 ft 479 kts 110°
2026-05-04 14:33 37.08573 -120.74855 32574 ft 481 kts 111°
2026-05-04 14:34 37.07716 -120.70807 32893 ft 482 kts 111°
2026-05-04 14:34 37.06850 -120.66729 33025 ft 483 kts 111°
2026-05-04 14:34 37.05986 -120.62675 33045 ft 480 kts 111°
2026-05-04 14:35 37.04270 -120.54653 33045 ft 480 kts 112°
2026-05-04 14:35 37.02535 -120.46574 33040 ft 482 kts 112°
2026-05-04 14:36 37.01081 -120.39835 33052 ft 483 kts 112°
2026-05-04 14:36 37.00202 -120.35777 33048 ft 485 kts 113°
2026-05-04 14:36 36.98390 -120.27493 33059 ft 503 kts 112°
2026-05-04 14:37 36.97458 -120.23231 33044 ft 512 kts 112°
2026-05-04 14:37 36.96194 -120.17421 33051 ft 523 kts 112°
2026-05-04 14:37 36.95236 -120.13004 33051 ft 528 kts 112°
2026-05-04 14:38 36.93638 -120.05636 33050 ft 530 kts 112°
2026-05-04 14:38 36.91428 -119.95176 33049 ft 537 kts 107°
2026-05-04 14:38 36.91078 -119.90486 33051 ft 548 kts 95°
2026-05-04 14:39 36.91238 -119.87329 33056 ft 554 kts 86°
2026-05-04 14:39 36.91437 -119.85776 33056 ft 557 kts 82°